TimeCDT,TemperatureF,Dew PointF,Humidity,Sea Level PressureIn,VisibilityMPH,Wind Direction,Wind SpeedMPH,Gust SpeedMPH,PrecipitationIn,Events,Conditions,WindDirDegrees,DateUTC
12:03 AM,78.8,73.4,83,29.93,10.0,SSE,11.5,18.4,N/A,,Overcast,160,2013-05-20 05:03:00
12:10 AM,78.8,73.4,83,29.93,10.0,South,10.4,17.3,N/A,,Overcast,170,2013-05-20 05:10:00
12:53 AM,78.1,73.0,84,29.94,10.0,South,10.4,-,N/A,,Overcast,170,2013-05-20 05:53:00
1:50 AM,78.8,73.4,83,29.91,10.0,South,10.4,-,N/A,,Overcast,180,2013-05-20 06:50:00
1:53 AM,78.1,73.0,84,29.94,10.0,South,8.1,-,N/A,,Overcast,180,2013-05-20 06:53:00
2:00 AM,78.8,73.4,83,29.92,10.0,South,10.4,17.3,N/A,,Overcast,180,2013-05-20 07:00:00
2:10 AM,78.8,73.4,83,29.91,10.0,South,9.2,17.3,N/A,,Overcast,180,2013-05-20 07:10:00
2:53 AM,78.1,73.0,84,29.93,10.0,South,9.2,-,N/A,,Overcast,180,2013-05-20 07:53:00
3:16 AM,78.8,73.4,83,29.91,10.0,South,10.4,17.3,N/A,,Overcast,170,2013-05-20 08:16:00
3:24 AM,78.8,73.4,83,29.90,10.0,South,11.5,17.3,N/A,,Overcast,170,2013-05-20 08:24:00
3:53 AM,78.1,72.0,81,29.93,10.0,South,6.9,18.4,N/A,,Overcast,170,2013-05-20 08:53:00
4:35 AM,78.8,73.4,83,29.91,10.0,South,10.4,-,N/A,,Overcast,170,2013-05-20 09:35:00
4:53 AM,77.0,72.0,84,29.93,10.0,South,9.2,-,N/A,,Overcast,170,2013-05-20 09:53:00
5:12 AM,78.8,71.6,78,29.91,10.0,South,10.4,17.3,N/A,,Overcast,170,2013-05-20 10:12:00
5:53 AM,78.8,71.6,78,29.92,10.0,South,8.1,-,N/A,,Overcast,180,2013-05-20 10:53:00
6:53 AM,78.1,73.0,84,29.96,10.0,SSE,9.2,-,N/A,,Overcast,160,2013-05-20 11:53:00
7:53 AM,78.1,73.0,84,29.96,10.0,South,6.9,-,N/A,,Overcast,170,2013-05-20 12:53:00
8:32 AM,80.6,73.4,79,29.95,10.0,South,11.5,-,N/A,,Overcast,170,2013-05-20 13:32:00
8:53 AM,80.6,73.4,79,29.96,10.0,South,13.8,-,N/A,,Overcast,170,2013-05-20 13:53:00
9:08 AM,80.6,73.4,79,29.96,10.0,South,9.2,-,N/A,,Overcast,170,2013-05-20 14:08:00
9:15 AM,80.6,73.4,79,29.96,10.0,SSE,15.0,21.9,N/A,,Overcast,160,2013-05-20 14:15:00
9:53 AM,81.0,73.0,77,29.98,10.0,South,13.8,20.7,N/A,,Overcast,170,2013-05-20 14:53:00
10:53 AM,84.0,73.9,72,29.98,10.0,SSE,12.7,20.7,N/A,,Mostly Cloudy,160,2013-05-20 15:53:00
11:45 AM,84.2,73.4,70,29.95,10.0,South,12.7,25.3,N/A,,Mostly Cloudy,170,2013-05-20 16:45:00
11:53 AM,84.9,73.0,67,29.97,10.0,SSE,13.8,21.9,N/A,,Mostly Cloudy,160,2013-05-20 16:53:00
12:53 PM,84.9,72.0,65,29.97,10.0,South,15.0,21.9,N/A,,Mostly Cloudy,170,2013-05-20 17:53:00
1:09 PM,86.0,71.6,62,29.94,10.0,South,13.8,19.6,N/A,,Mostly Cloudy,170,2013-05-20 18:09:00
1:53 PM,86.0,73.9,67,29.96,10.0,South,10.4,20.7,N/A,,Scattered Clouds,180,2013-05-20 18:53:00
2:18 PM,84.2,73.4,70,29.93,10.0,South,13.8,23.0,N/A,,Mostly Cloudy,180,2013-05-20 19:18:00
2:53 PM,84.0,73.0,69,29.95,10.0,South,11.5,19.6,N/A,,Mostly Cloudy,170,2013-05-20 19:53:00
3:53 PM,84.9,73.9,69,29.93,10.0,SSE,17.3,21.9,N/A,,Mostly Cloudy,160,2013-05-20 20:53:00
4:27 PM,84.2,73.4,70,29.89,10.0,South,11.5,20.7,N/A,,Scattered Clouds,180,2013-05-20 21:27:00
4:53 PM,84.0,73.9,72,29.91,10.0,SSE,16.1,21.9,N/A,,Mostly Cloudy,160,2013-05-20 21:53:00
5:34 PM,82.4,73.4,74,29.87,10.0,South,11.5,21.9,N/A,,Mostly Cloudy,180,2013-05-20 22:34:00
5:42 PM,82.4,73.4,74,29.87,10.0,SSE,15.0,23.0,N/A,,Mostly Cloudy,150,2013-05-20 22:42:00
5:53 PM,82.0,73.9,76,29.89,10.0,South,10.4,20.7,N/A,,Scattered Clouds,170,2013-05-20 22:53:00
6:24 PM,82.4,73.4,74,29.85,10.0,South,12.7,20.7,N/A,,Mostly Cloudy,170,2013-05-20 23:24:00
6:53 PM,81.0,73.9,79,29.88,10.0,SSE,16.1,23.0,N/A,,Overcast,160,2013-05-20 23:53:00
7:53 PM,80.1,73.9,81,29.88,10.0,South,10.4,-,N/A,,Mostly Cloudy,170,2013-05-21 00:53:00
8:53 PM,78.8,73.4,83,29.87,10.0,SSE,12.7,18.4,N/A,,Overcast,160,2013-05-21 01:53:00
9:53 PM,79.0,73.9,84,29.91,10.0,SSE,13.8,20.7,N/A,,Overcast,160,2013-05-21 02:53:00
10:21 PM,78.8,73.4,83,29.89,10.0,South,10.4,18.4,N/A,,Overcast,170,2013-05-21 03:21:00
10:32 PM,78.8,73.4,83,29.89,10.0,North,-9999.0,-,N/A,,Overcast,0,2013-05-21 03:32:00
10:53 PM,79.0,73.9,84,29.91,10.0,North,-9999.0,-,N/A,,Overcast,0,2013-05-21 03:53:00
11:34 PM,78.8,73.4,83,29.90,10.0,North,-9999.0,-,N/A,,Overcast,0,2013-05-21 04:34:00
11:53 PM,79.0,73.9,84,29.92,10.0,North,-9999.0,-,N/A,,Overcast,0,2013-05-21 04:53:00